Regional Weather Roundup
Issued by NWS Memphis, TN

Home | Current Version | Previous Version | Text Only | Print | Product List | Glossary On
Versions: 1 2 3 4 5 6 7 8 9 10 11 12 13 14 15 16 17 18 19 20 21 22 23 24 25 26 27 28 29 30 31 32 33 34 35 36 37 38 39 40 41 42 43 44 45 46 47 48 49 50
198
ASUS44 KMEG 102310
RWRMEG
MEMPHIS CWA HOURLY WEATHER ROUNDUP
NATIONAL WEATHER SERVICE MEMPHIS TN
500 PM CST SAT DEC 10 2016

...WEST TENNESSEE...

CITY           SKY/WX    TMP DP  RH WIND       PRES   REMARKS
MEMPHIS INTL   PTCLDY    44  12  27 SE5       30.40F
NWS MEMPHIS      N/A     40 N/A N/A MISG        N/A
JACKSON        CLEAR     38  15  39 E3        30.42F
BOLIVAR        CLEAR     37  18  44 E3        30.41F
LEXINGTON      CLEAR     37   9  30 CALM      30.42F
DYERSBURG      CLEAR     36  18  48 SE7       30.41F WCI  30
UNION CITY     CLEAR     36  18  48 CALM      30.41F
PARIS          CLEAR     34  12  40 CALM      30.43F
HUNTINGDON     CLEAR     34  16  47 CALM      30.42F


...EASTERN ARKANSAS...

CITY           SKY/WX    TMP DP  RH WIND       PRES   REMARKS
JONESBORO      CLOUDY    38  25  59 SE7       30.39F WCI  33
WEST MEMPHIS   PTCLDY    39  18  42 CALM      30.40F
BATESVILLE     PTCLDY    36  21  55 E6        30.39R WCI  31
NEWPORT        PTCLDY    37  26  64 SW3       30.40F
WALNUT RIDGE   MOCLDY    36  21  55 CALM      30.41R
BLYTHEVILLE    CLOUDY    40  19  43 S7        30.41F
SEARCY         CLOUDY    38  24  57 SE5       30.40F WCI  34
STUTTGART      CLEAR     43  25  49 S6        30.39F
PINE BLUFF     CLEAR     41  31  67 E8        30.38F
MONTICELLO     CLEAR     44  25  47 SE5       30.39F


...NORTH MISSISSIPPI...

CITY           SKY/WX    TMP DP  RH WIND       PRES   REMARKS
TUPELO         CLEAR     44  13  28 NE5       30.42S
OXFORD         CLEAR     39  16  38 CALM      30.42S
BATESVILLE     CLEAR     42  25  51 CALM      30.41F
OLIVE BRANCH   PTCLDY   N/A N/A N/A CALM      30.39F
TUNICA         CLEAR     41  23  48 CALM      30.42S
CLARKSDALE     CLEAR     43  25  49 CALM      30.40F
CORINTH        CLEAR     41  14  33 E3        30.41S
GREENWOOD      CLEAR     48  12  23 SE5       30.41R
COLUMBUS       CLEAR     45  22  41 CALM      30.41F
STARKVILLE     CLEAR     43  19  39 SE5       30.42F
GOLDEN TRIANGL CLEAR     45  16  31 CALM      30.38F


...SOUTHEAST MISSOURI...

CITY           SKY/WX    TMP DP  RH WIND       PRES   REMARKS
KENNETT        CLOUDY    39  27  60 SE6       30.40F WCI  35
WEST PLAINS    CLOUDY    32  17  54 SE7       30.32F WCI  26
POPLAR BLUFF   CLOUDY    35  23  61 SE6       30.41F WCI  30
CAPE GIRARDEAU CLOUDY    36  21  54 S6        30.42S WCI  31


...NORTHWEST ALABAMA...

CITY           SKY/WX    TMP DP  RH WIND       PRES   REMARKS
MUSCLE SHOALS  CLEAR     38  18  44 E5        30.43F WCI  34


...MIDDLE TENNESSEE...

CITY           SKY/WX    TMP DP  RH WIND       PRES   REMARKS
NASHVILLE      PTCLDY    37  11  34 E3        30.46F
CLARKSVILLE    CLEAR     33  13  43 NE3       30.45F
COLUMBIA       CLEAR     36  18  48 CALM      30.42F


...WESTERN KENTUCKY...

CITY           SKY/WX    TMP DP  RH WIND       PRES   REMARKS
PADUCAH        PTCLDY    35  12  38 SE5       30.43S WCI  31
FORT CAMPBELL  CLEAR     34  15  46 E3        30.44F


...CENTRAL ARKANSAS...

CITY           SKY/WX    TMP DP  RH WIND       PRES   REMARKS
LITTLE ROCK    CLOUDY    41  26  55 SE8       30.38F


SKY/WX REPORTED AS FAIR MEANS FEW OR NO CLOUDS BELOW
12 THOUSAND FEET.





USA.gov is the U.S. government's official web portal to all federal, state and local government web resources and services.